Simultaneous Nadir Overpasses (SNOs) Predictions

Prediction of SNOs between METOP-A and TERRA Satellite Orbit:

Table of predicted SNOs for the next 14.0 days since TLE Epoch: 3/10/2018
Index Date (METOP-A) Time (METOP-A) Lat,Lon (METOP-A) SZA (METOP-A ) Date (TERRA) Time (TERRA) Lat,Lon (TERRA) SZA (TERRA ) Distance(km) Time Diff (sec)
1 03/11/2018 05:50:14 -81.40, -38.62 92.26 03/11/2018 05:51:27 -81.40, -38.64 92.23 0.51 73
2 03/11/2018 06:40:54 81.40, 129.10 87.78 03/11/2018 06:40:53 81.40, 129.06 87.77 0.77 1
3 03/11/2018 07:31:34 -81.40, -63.38 92.22 03/11/2018 07:30:20 -81.40, -63.33 92.25 0.92 74
4 03/14/2018 01:24:30 -81.40, 27.81 93.34 03/14/2018 01:25:42 -81.39, 27.63 93.33 3.26 72
5 03/14/2018 02:15:10 81.40,-164.51 86.69 03/14/2018 02:15:08 81.39,-164.69 86.66 3.22 2
6 03/14/2018 03:05:23 -81.30, 13.69 92.10 03/14/2018 03:04:17 -81.67, 10.12 92.37 71.67 66
7 03/16/2018 20:58:47 -81.40, 94.23 94.42 03/16/2018 20:59:57 -81.39, 94.19 94.40 0.82 70
8 03/16/2018 21:49:27 81.40, -98.14 85.60 03/16/2018 21:49:23 81.40, -98.15 85.60 0.59 4
9 03/19/2018 16:33:04 -81.40, 160.63 95.51 03/19/2018 16:34:12 -81.40, 160.65 95.48 0.47 68
10 03/19/2018 17:23:44 81.40, -31.78 84.51 03/19/2018 17:23:38 81.40, -31.70 84.51 1.32 6
11 03/22/2018 12:07:21 -81.40,-132.97 96.60 03/22/2018 12:08:27 -81.39,-132.98 96.57 0.76 66




NCC Satellite Simultaneous Nadir Overpasses (SNOs) Prediction Service
